Location: Fountain Hills
(33.6120°N, 111.7170°W)
Time: 15:26:50
(UTC-07:00)

Hamsat - Visible Passes

Search period start: 27 March 2017 00:00
Search period end: 06 April 2017 00:00
Orbit: 585 x 619 km, 97.6° (Epoch: 26 March)

Date Brightness Start Highest point End Pass type
(mag) Time Alt. Az. Time Alt. Az. Time Alt. Az.
27 Mar ? 03:40:26 10° NE 03:43:16 17° E 03:44:32 15° ESE visible
27 Mar ? 05:15:19 10° N 05:19:02 30° WNW 05:21:21 18° WSW visible
28 Mar ? 03:51:40 10° NE 03:55:08 24° E 03:56:38 20° SE visible
28 Mar ? 05:27:27 10° NNW 05:30:46 22° WNW 05:33:26 13° WSW visible
29 Mar ? 04:03:07 10° NNE 04:06:58 33° E 04:08:43 24° SE visible
29 Mar ? 05:39:45 10° NNW 05:42:27 17° WNW 05:45:09 10° WSW visible
30 Mar ? 04:14:42 10° NNE 04:18:48 46° E 04:20:49 26° SSE visible
30 Mar ? 05:52:26 10° NW 05:54:08 12° WNW 05:55:50 10° W visible
31 Mar ? 04:26:22 10° NNE 04:30:36 67° E 04:32:55 26° S visible
01 Apr ? 04:38:07 10° N 04:42:23 87° WNW 04:45:00 24° SSW visible
02 Apr ? 04:49:58 10° N 04:54:10 61° WNW 04:57:04 20° SSW visible
03 Apr ? 03:28:13 10° ENE 03:30:00 12° E 03:31:47 10° ESE visible
03 Apr ? 05:01:52 10° N 05:05:55 43° WNW 05:09:09 15° SW visible
04 Apr ? 03:39:01 10° NE 03:41:52 17° E 03:44:25 11° SE visible
04 Apr ? 05:13:52 10° N 05:17:39 31° WNW 05:21:13 11° SW visible
05 Apr ? 03:50:16 10° NE 03:53:44 24° E 03:56:29 13° SE visible
05 Apr ? 05:25:59 10° NNW 05:29:22 23° WNW 05:32:45 10° WSW visible
